When you browse on this site, cookies collect data to enhance your experience and personalize the content and advertising you see.
Visit our Privacy Policy to learn more. By continuing to use the site, you agree to this use of cookies and data.
  • en France
  • Liste des pays
  • À 7 jours
  • Température de l'eau
  • Carte satellitaire
  • Carte météo
  • Widgets météo
  • user-avatar
    Se connecter

    Météo par heure à Aguililla

    Ce jour, 19 Juillet, Vendredi

    Heure Température Précipitation Vent Pression Humidité
    00:00 +21°C° 0 mm 1 m/s 676 mmHg 87%
    01:00 +21°C° 0 mm 1 m/s 676 mmHg 86%
    02:00 +21°C° 0 mm 1 m/s 675 mmHg 85%
    03:00 +20°C° 0 mm 1 m/s 675 mmHg 85%
    04:00 +20°C° 0 mm 1 m/s 675 mmHg 85%
    05:00 +18°C° 0 mm 0 m/s 675 mmHg 85%
    06:00 +20°C° 0 mm 0 m/s 676 mmHg 82%
    07:00 +23°C° 0 mm 1 m/s 676 mmHg 79%
    08:00 +25°C° 0 mm 1 m/s 677 mmHg 76%
    09:00 +27°C° 0.1 mm 1 m/s 677 mmHg 71%
    10:00 +28°C° 0.1 mm 1 m/s 677 mmHg 65%
    11:00 +30°C° 0.1 mm 1 m/s 678 mmHg 60%
    12:00 +30°C° 0.9 mm 1 m/s 677 mmHg 63%
    13:00 +29°C° 0.9 mm 1 m/s 676 mmHg 67%
    14:00 +29°C° 0.9 mm 1 m/s 676 mmHg 70%
    15:00 +28°C° 1.8 mm 1 m/s 675 mmHg 76%
    16:00 +27°C° 1.8 mm 1 m/s 675 mmHg 82%
    17:00 +26°C° 1.8 mm 1 m/s 675 mmHg 88%
    18:00 +24°C° 1.6 mm 1 m/s 675 mmHg 90%
    19:00 +23°C° 1.6 mm 1 m/s 675 mmHg 92%
    20:00 +22°C° 1.6 mm 1 m/s 676 mmHg 94%
    21:00 +22°C° 2.3 mm 1 m/s 676 mmHg 95%
    22:00 +21°C° 2.3 mm 1 m/s 676 mmHg 96%
    23:00 +21°C° 2.3 mm 1 m/s 676 mmHg 96%

    Demain, 20 Juillet, Samedi

    Heure Température Précipitation Vent Pression Humidité
    00:00 +21°C° 1.4 mm 1 m/s 676 mmHg 96%
    01:00 +21°C° 1.4 mm 1 m/s 676 mmHg 97%
    02:00 +20°C° 1.4 mm 1 m/s 675 mmHg 97%
    03:00 +18°C° 0.8 mm 0 m/s 675 mmHg 97%
    04:00 +18°C° 0.8 mm 0 m/s 675 mmHg 97%
    05:00 +18°C° 0.8 mm 0 m/s 675 mmHg 97%
    06:00 +19°C° 0.1 mm 0 m/s 675 mmHg 97%
    07:00 +19°C° 0.1 mm 0 m/s 676 mmHg 96%
    08:00 +21°C° 0.1 mm 1 m/s 676 mmHg 96%
    09:00 +23°C° 0.2 mm 1 m/s 676 mmHg 91%
    10:00 +24°C° 0.2 mm 1 m/s 677 mmHg 85%
    11:00 +23°C° 0.2 mm 0 m/s 677 mmHg 79%
    12:00 +26°C° 0.8 mm 1 m/s 676 mmHg 78%
    13:00 +27°C° 0.8 mm 1 m/s 676 mmHg 77%
    14:00 +27°C° 0.8 mm 1 m/s 675 mmHg 76%
    15:00 +26°C° 1.6 mm 1 m/s 675 mmHg 81%
    16:00 +25°C° 1.6 mm 1 m/s 675 mmHg 86%
    17:00 +24°C° 1.6 mm 1 m/s 674 mmHg 91%
    18:00 +23°C° 0.8 mm 1 m/s 674 mmHg 92%
    19:00 +22°C° 0.8 mm 1 m/s 675 mmHg 93%
    20:00 +22°C° 0.8 mm 1 m/s 675 mmHg 94%
    21:00 +19°C° 0.1 mm 0 m/s 675 mmHg 94%
    22:00 +19°C° 0.1 mm 0 m/s 675 mmHg 94%
    23:00 +18°C° 0.1 mm 0 m/s 676 mmHg 94%

    Après-demain, 21 Juillet, Dimanche

    Heure Température Précipitation Vent Pression Humidité
    00:00 +18°C° 0 mm 0 m/s 675 mmHg 94%
    01:00 +18°C° 0 mm 0 m/s 675 mmHg 94%
    02:00 +20°C° 0 mm 1 m/s 675 mmHg 95%
    03:00 +18°C° 0 mm 0 m/s 675 mmHg 94%
    04:00 +18°C° 0 mm 0 m/s 675 mmHg 94%
    05:00 +17°C° 0 mm 0 m/s 675 mmHg 94%
    06:00 +19°C° 0 mm 0 m/s 676 mmHg 91%
    07:00 +20°C° 0 mm 0 m/s 676 mmHg 88%
    08:00 +22°C° 0 mm 0 m/s 677 mmHg 85%
    09:00 +23°C° 0.4 mm 0 m/s 677 mmHg 82%
    10:00 +24°C° 0.4 mm 0 m/s 677 mmHg 79%
    11:00 +25°C° 0.4 mm 0 m/s 678 mmHg 76%
    12:00 +25°C° 1.1 mm 0 m/s 677 mmHg 77%
    13:00 +26°C° 1.1 mm 0 m/s 677 mmHg 78%
    14:00 +26°C° 1.1 mm 0 m/s 676 mmHg 78%
    15:00 +25°C° 0.6 mm 0 m/s 676 mmHg 81%
    16:00 +24°C° 0.6 mm 0 m/s 675 mmHg 85%
    17:00 +23°C° 0.6 mm 0 m/s 675 mmHg 88%
    18:00 +24°C° 0.1 mm 1 m/s 675 mmHg 88%
    19:00 +23°C° 0.1 mm 1 m/s 675 mmHg 88%
    20:00 +22°C° 0.1 mm 1 m/s 675 mmHg 88%
    21:00 +22°C° 0 mm 1 m/s 676 mmHg 87%
    22:00 +21°C° 0 mm 1 m/s 676 mmHg 85%
    23:00 +21°C° 0 mm 1 m/s 676 mmHg 84%

    22 Juillet, Lundi

    Heure Température Précipitation Vent Pression Humidité
    00:00 +21°C° 0 mm 1 m/s 675 mmHg 83%
    01:00 +21°C° 0 mm 1 m/s 675 mmHg 83%
    02:00 +20°C° 0 mm 1 m/s 675 mmHg 82%
    03:00 +20°C° 0 mm 1 m/s 675 mmHg 82%
    04:00 +20°C° 0 mm 1 m/s 675 mmHg 81%
    05:00 +20°C° 0 mm 1 m/s 675 mmHg 80%
    06:00 +20°C° 0 mm 0 m/s 676 mmHg 78%
    07:00 +22°C° 0 mm 0 m/s 677 mmHg 75%
    08:00 +24°C° 0 mm 0 m/s 677 mmHg 73%
    09:00 +25°C° 0 mm 0 m/s 678 mmHg 68%
    10:00 +27°C° 0 mm 0 m/s 678 mmHg 63%
    11:00 +29°C° 0 mm 0 m/s 678 mmHg 58%
    12:00 +30°C° 0.6 mm 1 m/s 677 mmHg 62%
    13:00 +30°C° 0.6 mm 1 m/s 677 mmHg 66%
    14:00 +30°C° 0.6 mm 1 m/s 676 mmHg 69%
    15:00 +29°C° 0.9 mm 1 m/s 676 mmHg 74%
    16:00 +26°C° 0.9 mm 0 m/s 675 mmHg 79%
    17:00 +26°C° 0.9 mm 0 m/s 675 mmHg 84%
    18:00 +24°C° 0.5 mm 0 m/s 675 mmHg 85%
    19:00 +24°C° 0.5 mm 1 m/s 675 mmHg 86%
    20:00 +23°C° 0.5 mm 1 m/s 675 mmHg 87%
    21:00 +23°C° 0.2 mm 1 m/s 676 mmHg 87%
    22:00 +22°C° 0.2 mm 1 m/s 676 mmHg 87%
    23:00 +22°C° 0.2 mm 1 m/s 676 mmHg 87%

    23 Juillet, Mardi

    Heure Température Précipitation Vent Pression Humidité
    00:00 +22°C° 1.3 mm 1 m/s 676 mmHg 89%
    01:00 +22°C° 1.3 mm 1 m/s 675 mmHg 90%
    02:00 +20°C° 1.3 mm 0 m/s 675 mmHg 92%
    03:00 +19°C° 0.6 mm 0 m/s 675 mmHg 92%
    04:00 +19°C° 0.6 mm 0 m/s 675 mmHg 92%
    05:00 +19°C° 0.6 mm 0 m/s 675 mmHg 92%
    06:00 +20°C° 0.3 mm 0 m/s 676 mmHg 92%
    07:00 +22°C° 0.3 mm 1 m/s 676 mmHg 92%
    08:00 +23°C° 0.3 mm 1 m/s 677 mmHg 92%
    09:00 +24°C° 0.6 mm 1 m/s 677 mmHg 90%
    10:00 +24°C° 0.6 mm 1 m/s 677 mmHg 88%
    11:00 +25°C° 0.6 mm 1 m/s 677 mmHg 86%
    12:00 +25°C° 0.7 mm 1 m/s 676 mmHg 85%
    13:00 +26°C° 0.7 mm 1 m/s 676 mmHg 84%
    14:00 +26°C° 0.7 mm 1 m/s 675 mmHg 82%
    15:00 +24°C° 1.1 mm 0 m/s 675 mmHg 84%
    16:00 +24°C° 1.1 mm 0 m/s 675 mmHg 86%
    17:00 +23°C° 1.1 mm 0 m/s 675 mmHg 88%
    18:00 +22°C° 0.9 mm 0 m/s 675 mmHg 89%
    19:00 +21°C° 0.9 mm 0 m/s 675 mmHg 90%
    20:00 +20°C° 0.9 mm 0 m/s 676 mmHg 91%
    21:00 +22°C° 0.5 mm 1 m/s 676 mmHg 92%
    22:00 +22°C° 0.5 mm 1 m/s 676 mmHg 92%
    23:00 +21°C° 0.5 mm 1 m/s 676 mmHg 92%

    24 Juillet, Mercredi

    Heure Température Précipitation Vent Pression Humidité
    00:00 +21°C° 0.6 mm 1 m/s 676 mmHg 93%
    01:00 +21°C° 0.6 mm 1 m/s 675 mmHg 93%
    02:00 +20°C° 0.6 mm 1 m/s 675 mmHg 94%
    03:00 +18°C° 0.4 mm 0 m/s 675 mmHg 94%
    04:00 +18°C° 0.4 mm 0 m/s 675 mmHg 94%
    05:00 +18°C° 0.4 mm 0 m/s 676 mmHg 94%
    06:00 +19°C° 0.2 mm 0 m/s 676 mmHg 93%
    07:00 +20°C° 0.2 mm 0 m/s 677 mmHg 91%
    08:00 +22°C° 0.2 mm 0 m/s 677 mmHg 89%
    09:00 +23°C° 0.7 mm 0 m/s 677 mmHg 86%
    10:00 +26°C° 0.7 mm 1 m/s 677 mmHg 82%
    11:00 +27°C° 0.7 mm 1 m/s 677 mmHg 79%
    12:00 +27°C° 1.7 mm 1 m/s 677 mmHg 79%
    13:00 +27°C° 1.7 mm 1 m/s 676 mmHg 80%
    14:00 +28°C° 1.7 mm 1 m/s 676 mmHg 80%
    15:00 +27°C° 1.8 mm 1 m/s 675 mmHg 83%
    16:00 +26°C° 1.8 mm 1 m/s 675 mmHg 86%
    17:00 +25°C° 1.8 mm 1 m/s 675 mmHg 90%
    18:00 +24°C° 1.8 mm 1 m/s 675 mmHg 91%
    19:00 +23°C° 1.8 mm 1 m/s 675 mmHg 93%
    20:00 +22°C° 1.8 mm 1 m/s 675 mmHg 95%
    21:00 +21°C° 1.3 mm 1 m/s 676 mmHg 95%
    22:00 +19°C° 1.3 mm 0 m/s 676 mmHg 96%
    23:00 +19°C° 1.3 mm 0 m/s 676 mmHg 96%
    Voir plus